Location: Newark
(43.4306°N, 0.3089°E)
Time: 16:12:13
(UTC+00:00)

SR - Pass Details

Date: 28 August 2019
Orbit: 576 x 880 km, 66.7° (Epoch: 16 September)

Event Time Altitude Azimuth Distance (km) Brightness Sun altitude
Rises 20:18:23 0° 324° (NW) 3,310 ? -17.0°
Reaches altitude 10° 20:20:48 10° 320° (NW) 2,416 ? -17.4°
Maximum altitude 20:26:15 54° 245° (WSW) 1,035 ? -18.2°
Enters shadow 20:30:30 18° 174° (S) 2,008 ? -18.8°
